Flag for Austria Weather past 2 weeks in Graz, Styria, Austria

Now
68 °F

Partly sunny.


Feels Like: 68 °F
Forecast: 65 / 74 °F
Wind: 2 mph from North

Location: Graz-Thalerhof-Flughafen

Current Time: Jul 30, 2014 at 11:50:46 AM

Latest Report: Jul 30, 2014 at 11:20 AM


Visibility: N/A

Pressure: 29.80 "Hg

Humidity: 88%

Dew point: 64 °F

Location of GrazLocation

Historic Weather in Graz — Graph

°F

Graz temperature yesterday

Maximum temperature yesterday: 77 °F (at 3:50 PM)
Minimum temperature yesterday: 64 °F (at 6:50 AM)
Average temperature yesterday: 70 °F

Past Weeks' High & Low Weather Summary

 TemperatureHumidityPressure
High88 °F (Jul 20, 3:50 PM)100% (Jul 16, 4:50 AM)30.15 "Hg (Jul 16, 4:50 AM)
Low55 °F (Jul 24, 4:20 AM)40% (Jul 18, 11:50 AM)29.74 "Hg (Jul 29, 5:20 PM)
Average70 °F76%29.94 "Hg
* Reported Jul 15 10:20 AM — Jul 30 10:20 AM, Graz, Weather by CustomWeather, © 2014

Note: Actual official high and low records may vary slightly from our data, if they occured in-between our weather recording intervals... More about our weather records

Advertising

Graz weather history for previous 24 hours

 ConditionsComfort  
Time TempWeatherWind HumidityBarometerVisibility
10:20 AM
Jul 30
66 °FSprinkles. Partly sunny.5 mph94%29.80 "Hg5 mi
9:50 AM66 °FSprinkles. Partly sunny.1 mph88%29.77 "HgN/A
9:20 AM66 °FSprinkles. Partly sunny.2 mph88%29.77 "HgN/A
8:50 AM66 °FPartly sunny.2 mph88%29.77 "HgN/A
8:20 AM66 °FBroken clouds.2 mph88%29.77 "HgN/A
7:50 AM64 °FBroken clouds.6 mph94%29.74 "HgN/A
7:20 AM64 °FBroken clouds.6 mph94%29.77 "HgN/A
6:50 AM64 °FBroken clouds.2 mph94%29.77 "Hg6 mi
6:20 AM63 °FPassing clouds.3 mph100%29.77 "Hg6 mi
5:50 AM63 °FPartly cloudy.3 mph94%29.74 "Hg6 mi
5:20 AM63 °FPassing clouds.3 mph94%29.77 "HgN/A
4:50 AM61 °FClear.5 mph94%29.74 "Hg10 mi
4:20 AM63 °FPassing clouds.3 mph94%29.74 "HgN/A
3:50 AM61 °FClear.3 mph100%29.74 "Hg10 mi
3:20 AM63 °FMild.1 mph94%29.74 "HgN/A
2:50 AM63 °FMild.3 mph94%29.77 "HgN/A
2:20 AM63 °FPassing clouds.2 mph94%29.77 "HgN/A
1:50 AM63 °FMild.2 mph94%29.77 "HgN/A
1:20 AM63 °FMild.2 mph94%29.77 "HgN/A
12:50 AM63 °FMild.2 mph94%29.77 "HgN/A
12:20 AM64 °FMild.3 mph88%29.77 "HgN/A
11:50 PM
Jul 29
64 °FClear.3 mph88%29.77 "Hg10 mi
11:20 PM64 °FClear.1 mph94%29.77 "Hg10 mi
10:50 PM66 °FPassing clouds.1 mph88%29.77 "HgN/A
10:20 PM66 °FPassing clouds.1 mph88%29.77 "HgN/A
9:50 PM68 °FPassing clouds.3 mph83%29.77 "HgN/A
9:20 PM68 °FPassing clouds.3 mph83%29.77 "HgN/A
8:50 PM68 °FScattered clouds.6 mph83%29.74 "HgN/A
8:20 PM70 °FScattered clouds.5 mph78%29.74 "HgN/A
7:50 PM72 °FScattered clouds.8 mph69%29.74 "HgN/A
7:20 PM73 °FBroken clouds.10 mph65%29.74 "HgN/A
6:50 PM75 °FBroken clouds.9 mph61%29.74 "HgN/A
6:20 PM75 °FBroken clouds.6 mph61%29.74 "HgN/A
5:50 PM77 °FBroken clouds.7 mph61%29.74 "HgN/A
5:20 PM77 °FBroken clouds.8 mph61%29.74 "HgN/A
4:50 PM77 °FBroken clouds.12 mph57%29.77 "HgN/A
4:20 PM77 °FThundershowers. Broken clouds.10 mph65%29.77 "HgN/A
3:50 PM77 °FBroken clouds.8 mph69%29.77 "HgN/A
3:20 PM75 °FBroken clouds.6 mph69%29.77 "HgN/A
2:50 PM75 °FBroken clouds.8 mph74%29.77 "HgN/A
2:20 PM75 °FThundershowers. Broken clouds.9 mph74%29.80 "HgN/A
1:50 PM75 °FBroken clouds.6 mph69%29.80 "HgN/A
1:20 PM75 °FBroken clouds.6 mph69%29.80 "HgN/A
12:50 PM73 °FPartly sunny.6 mph74%29.80 "HgN/A
12:20 PM73 °FPartly sunny.2 mph74%29.80 "HgN/A
11:50 AM72 °FPartly sunny.5 mph78%29.80 "HgN/A
11:20 AM72 °FBroken clouds.3 mph78%29.80 "HgN/A
Weather by CustomWeather, © 2014

See weather overviewHow to use our weather pages